Regional Weather Roundup
Issued by NWS

Home | Current Version | Previous Version | Graphics & Text | Print | Product List | Glossary Off
Versions: 1 2 3 4 5 6 7 8 9 10 11 12 13 14 15 16 17 18 19 20 21 22 23 24 25 26 27 28 29 30 31 32 33 34 35 36 37 38 39 40 41 42 43 44 45 46 47 48 49 50

000
ASUS43 KDTX 020601
RWRMI
MICHIGAN HOURLY REGIONAL WEATHER ROUNDUP
NATIONAL WEATHER SERVICE DETROIT/PONTIAC MI
200 AM EDT TUE SEP 02 2014

NOTE: "FAIR" INDICATES FEW OR NO CLOUDS BELOW 12,000 FEET WITH NO
SIGNIFICANT WEATHER AND/OR OBSTRUCTION TO VISIBILITY.

MIZ047>049-052>055-059>063-066>070-074>076-081>083-020700-
SOUTHEAST LOWER MICHIGAN

CITY           SKY/WX    TMP DP  RH WIND       PRES   REMARKS
ADRIAN         FAIR      70  67  90 SW5       29.88S
6HR MIN TEMP:  70; 6HR MAX TEMP:  80;

ALMA           CLOUDY    69  66  89 SW5       29.82S
BAD AXE        FAIR      68  68 100 SW5       29.80S
6HR MIN TEMP:  68; 6HR MAX TEMP:  70;

CARO           MOCLDY    66  66 100 SW3       29.81S FOG
DETROIT CITY   FAIR      75  69  81 SW8       29.84S
6HR MIN TEMP:  74; 6HR MAX TEMP:  77;

DETROIT        MOCLDY    71  69  93 S6        29.85F
6HR MIN TEMP:  71; 6HR MAX TEMP:  76;

FLINT          CLOUDY    72  66  81 SW5       29.83S
6HR MIN TEMP:  71; 6HR MAX TEMP:  76;

GROSSE ILE     FAIR      73  70  88 SW5       29.84F
HILLSDALE      FAIR      70  68  94 SW6       29.89S
6HR MIN TEMP:  70; 6HR MAX TEMP:  77;

HOWELL         FAIR      69  68  96 SW6       29.84F
6HR MIN TEMP:  69; 6HR MAX TEMP:  72;


CITY           SKY/WX    TMP DP  RH WIND       PRES   REMARKS
LAMBERTVILLE   FAIR      73  64  73 SW7       29.88S
LANSING        CLOUDY    72  65  78 SW16      29.84R
6HR MIN TEMP:  70; 6HR MAX TEMP:  76;

LAPEER         FAIR      69  66  92 SW6       29.83S
MASON          FAIR      70  66  88 SW3       29.85S
MONROE         FAIR      73  68  83 SW8       29.85S
MT. CLEMENS    FAIR      70  69  99 S6        29.83S
6HR MIN TEMP:  68; 6HR MAX TEMP:  73; 6HR PCP:  0.01;

PONTIAC        FAIR      69  67  93 CALM      29.85R
6HR MIN TEMP:  69; 6HR MAX TEMP:  72;

PORT HOPE        N/A     70  66  87 W6        29.77R
6HR MIN TEMP:  70; 6HR MAX TEMP:  71;

PORT HURON     FAIR      68  68 100 S3        29.83S
TRI CITIES     FAIR      70  66  87 SW5       29.82R
6HR MIN TEMP:  70; 6HR MAX TEMP:  77;

TROY           FAIR      72  69  90 SW6       29.86S
SAGINAW HB     FAIR      70  70 100 SW6       29.81S
$$
MIZ043>046-050>051-056>058-064>065-071>073-077>080-020700-
SOUTHWEST LOWER MICHIGAN

CITY           SKY/WX    TMP DP  RH WIND       PRES   REMARKS
BATTLE CREEK   MOCLDY    71  65  81 SW12      29.86R
6HR MIN TEMP:  70; 6HR MAX TEMP:  77;

BENTON HARBOR  CLOUDY    72  67  84 W13       29.85S
6HR MIN TEMP:  72; 6HR MAX TEMP:  76; 6HR PCP: TRACE;

BIG RAPIDS     FAIR      65  65 100 W5        29.81S
6HR MIN TEMP:  65; 6HR MAX TEMP:  74;

COLDWATER      FAIR      71  67  89 SW8       29.88S
6HR MIN TEMP:  71; 6HR MAX TEMP:  78;

FREMONT        FAIR      64  63  96 SW3       29.83R
HOLLAND        CLOUDY    71  67  87 W6        29.85R
6HR MIN TEMP:  71; 6HR MAX TEMP:  76; 6HR PCP: TRACE;

GRAND RAPIDS   MOCLDY    71  71 100 S7        29.84R
6HR MIN TEMP:  71; 6HR MAX TEMP:  78; 6HR PCP: TRACE;

IONIA          DRIZZLE   70  67  91 SW10      29.83R
KALAMAZOO      MOCLDY    71  65  81 SW7       29.86R
6HR MIN TEMP:  70; 6HR MAX TEMP:  79;

LUDINGTON      FAIR      67  65  92 W3        29.82R
MARSHALL       FAIR      69  66  92 SW6       29.86S
MOUNT PLEASANT FAIR      67  66  94 SW5       29.81R
6HR MIN TEMP:  67; 6HR MAX TEMP:  76;

MUSKEGON       FAIR      70  63  78 W8        29.83R
6HR MIN TEMP:  70; 6HR MAX TEMP:  75;

SOUTH HAVEN    CLOUDY    73  69  86 W7        29.85S
$$
MIZ016>042-020700-
NORTHERN LOWER MICHIGAN

CITY           SKY/WX    TMP DP  RH WIND       PRES   REMARKS
BEAVER ISLAND  FAIR      62  61  97 CALM      29.76R
6HR MIN TEMP:  62; 6HR MAX TEMP:  68;

BELLAIRE       MOCLDY    64  62  94 CALM      29.77R
6HR MIN TEMP:  64; 6HR MAX TEMP:  72;

CADILLAC       FAIR      62  62 100 SW5       29.81S
CHARLEVOIX     MOCLDY    65  63  93 SW5       29.79R
6HR MIN TEMP:  65; 6HR MAX TEMP:  71;

FRANKFORT      FAIR      67  62  84 W5        29.79R
GAYLORD        CLOUDY    63  62  97 SW6       29.80R
6HR MIN TEMP:  63; 6HR MAX TEMP:  67; 6HR PCP: TRACE;

GRAYLING       FAIR      64  64 100 W3        29.81R
6HR MIN TEMP:  64; 6HR MAX TEMP:  74;

HARBOR SPRINGS CLOUDY    66  63  90 W3        29.76R
HOUGHTON LAKE  FAIR      67  64  90 W5        29.81R
6HR MIN TEMP:  67; 6HR MAX TEMP:  73;

MANISTEE       CLOUDY    66  61  82 W9        29.80S
OSCODA         FAIR      66  65  99 SW6       29.77R
PELLSTON       CLOUDY    64  63  96 W5        29.76R
6HR MIN TEMP:  64; 6HR MAX TEMP:  70;

ROGERS CITY    FAIR      64  64 100 SW3       29.76R
TRAVERSE CITY  FAIR      67  63  87 SW5       29.77R
6HR MIN TEMP:  67; 6HR MAX TEMP:  74;

$$
MIZ007>008-015-020700-
EASTERN UPPER MICHIGAN

CITY           SKY/WX    TMP DP  RH WIND       PRES   REMARKS
KINROSS        FAIR      61  59  94 W3        29.73S
6HR MIN TEMP:  61; 6HR MAX TEMP:  66;

MACKINAC ISLAN FOG       63  63 100 SW5       29.74R VSB 1/4
6HR MIN TEMP:  63; 6HR MAX TEMP:  66;

NEWBERRY       FAIR      57  57  98 SW8       29.73S
S. S. MARIE    MOCLDY    60  58  92 SW6       29.71S
6HR MIN TEMP:  60; 6HR MAX TEMP:  67; 6HR PCP:  0.33;

$$
MIZ004>006-011>014-085-020700-
CENTRAL UPPER MICHIGAN

CITY           SKY/WX    TMP DP  RH WIND       PRES   REMARKS
MANISTIQUE     FAIR      60  58  93 W3        29.74S
ESCANABA       FAIR      55  54  94 CALM      29.77R
6HR MIN TEMP:  55; 6HR MAX TEMP:  66;

MENOMINEE      FAIR      61  55  82 W3        29.79R
6HR MIN TEMP:  59; 6HR MAX TEMP:  72;

SAWYER-GWINN   FAIR      56  54  93 SW6       29.76R
$$
MIZ001>003-009>011-084-020700-
WESTERN UPPER MICHIGAN

CITY           SKY/WX    TMP DP  RH WIND       PRES   REMARKS
IRON MOUNTAIN  FAIR      56  54  93 CALM      29.78R
6HR MIN TEMP:  55; 6HR MAX TEMP:  70;

HOUGHTON       FAIR      58  55  90 W10       29.72R
6HR MIN TEMP:  58; 6HR MAX TEMP:  64;

COPPER HARBOR    N/A     64  55  72 VRB5      29.69R
6HR MIN TEMP:  63; 6HR MAX TEMP:  66;

$$

ABBREVIATIONS USED IN REMARKS
   TC - TEMPERATURE IN CELSIUS
  WCI - WIND CHILL INDEX
   HX - HEAT INDEX
  VSB - VISIBILITY



USA.gov is the U.S. government's official web portal to all federal, state and local government web resources and services.